Location: Sternwarte ZA, Rosenfeld-Brittheim
(48.2889°N, 8.6789°E)
Time: 13:28:09
(UTC+02:00)

ISS - Pass Details

Date: 20 May 2018
Orbit: 402 x 407 km, 51.6° (Epoch: 26 May)

Event Time Altitude Azimuth Distance (km) Brightness Sun altitude
Rises 23:06:20 0° 228° (SW) 2,310 -0.1 -15.2°
Reaches altitude 10° 23:08:28 10° 222° (SW) 1,453 -1.2 -15.4°
Maximum altitude 23:11:35 44° 148° (SSE) 567 -3.6 -15.7°
Drops below altitude 10° 23:14:43 10° 75° (ENE) 1,459 -1.2 -15.9°
Sets 23:16:51 0° 69° (ENE) 2,320 -0.1 -16.1°
